Regional Weather Roundup
Issued by NWS Sterling, VA

Home | Current Version | Previous Version | Graphics & Text | Print | Product List | Glossary On
Versions: 1 2 3 4 5 6 7 8 9 10 11 12 13 14 15 16 17 18 19 20 21 22 23 24 25 26 27 28 29 30 31 32 33 34 35 36 37 38 39 40 41 42 43 44 45 46 47 48 49 50
000
ASUS41 KLWX 190110
RWRLWX

REGIONAL WEATHER ROUNDUP
NATIONAL WEATHER SERVICE BALTIMORE MD/WASHINGTON DC
900 PM EDT SAT APR 18 2015

Note: "FAIR" indicates few or no clouds below 12,000 feet
with no significant weather and/or obstructions to visibility.
 TC=TEMPERATURE CELSIUS

 * =Non NWS site. Station does not report precipitation (e.g. rain,
    snow, etc.), thunder, or fog.

DCZ001-MDZ009-015-VAZ040>042-051-053>054-190200-
WASHINGTON METRO

CITY           SKY/WX    TMP DP  RH WIND       PRES   REMARKS
WASHINGTON NAT MOCLDY    71  52  50 S7        29.98R
DULLES         MOCLDY    62  51  67 CALM      29.98R
ANDREWS AFB    MOCLDY    67  49  51 S3        29.98R
FT BELVOIR     MOCLDY    64  50  58 E1        29.98R
QUANTICO       MOCLDY    68  55  63 CALM      29.99R
COLLEGE PARK*  MOCLDY    70  46  43 CALM      29.98R
LEESBURG*      PTCLDY    66  52  59 W3        30.00R
MANASSAS*      CLEAR     63  54  72 CALM      29.98R
GAITHERSBURG*  CLOUDY    64  46  52 CALM      30.02R

$$

MDZ006>007-011-014-190200-
BALTIMORE METRO

CITY           SKY/WX    TMP DP  RH WIND       PRES   REMARKS
BWI AIRPORT    CLOUDY    69  46  43 S5        29.97R
MD SCIENCE CTR   N/A     72  47  40 MISG      29.97R
MARTIN STATE   MOCLDY    70  52  52 SE5       29.98R
ANNAPOLIS      CLOUDY    65  51  60 CALM      29.98R
FORT MEADE*    CLOUDY    63  50  63 S3        30.00R

$$

MDZ012-015-019>023-190200-
MARYLAND EASTERN SHORE

CITY           SKY/WX    TMP DP  RH WIND       PRES   REMARKS
OCEAN CITY     CLOUDY    57  53  86 SW6       30.00S
SALISBURY      CLOUDY    62  48  60 S3        30.00R
BAY BRIDGE AP*   N/A     64  52  63 CALM      29.98R

$$

MDZ017>025-190200-
SOUTHERN MARYLAND

CITY           SKY/WX    TMP DP  RH WIND       PRES   REMARKS
PATUXENT RIVER CLOUDY    61  52  72 CALM      29.99R
ST INIGOES     MOCLDY    64  50  60 CALM      29.99R
LEONARDTOWN*   MOCLDY    63  46  55 CALM      30.01R

$$

MDZ003>005-190200-
NORTH CENTRAL MARYLAND

CITY           SKY/WX    TMP DP  RH WIND       PRES   REMARKS
FREDERICK*     CLOUDY    64  45  48 CALM      30.00R
HAGERSTOWN APT CLOUDY    74  39  28 SW3       29.99R
WESTMINSTER*   CLOUDY    70  43  37 CALM      29.98R

$$

MDZ501>502-190200-
WESTERN MARYLAND

CITY           SKY/WX    TMP DP  RH WIND       PRES   REMARKS
OAKLAND*       MOCLDY    61  37  41 N3        30.10R
CUMBERLAND*    MOCLDY    72  37  28 N3        30.05R

$$

VAZ025>031-190200-
SHENANDOAH VALLEY

CITY           SKY/WX    TMP DP  RH WIND       PRES   REMARKS
WINCHESTER*    MOCLDY    63  43  48 CALM      30.00R
FRONT ROYAL*   NOT AVBL
LURAY*         NOT AVBL
NEW MARKET*    NOT AVBL
STAUNTON*      CLEAR     66  49  53 E3        30.03R
WAYNESBORO*    NOT AVBL

$$

WVZ021-048>050-054>055-190200-
EASTERN WEST VIRGINIA PANHANDLE

CITY           SKY/WX    TMP DP  RH WIND       PRES   REMARKS
MARTINSBURG    MOCLDY    68  48  48 CALM      30.00R
PETERSBURG*    NOT AVBL

$$

VAZ036>039-050-190200-
CENTRAL FOOTHILLS

CITY           SKY/WX    TMP DP  RH WIND       PRES   REMARKS
CHARLOTTESVILL PTCLDY    69  48  47 NE3       29.99R
CULPEPER*      PTCLDY    63  55  77 CALM      29.99R
ORANGE*        PTCLDY    63  52  67 CALM      30.01S
GORDONSVILLE*  NOT AVBL
WARRENTON*     FAIR      59  53  82 CALM      29.99R

$$

VAZ055>057-190200-
NORTH AND CENTRAL PIEDMONT

CITY           SKY/WX    TMP DP  RH WIND       PRES   REMARKS
FREDERICKSBRG* PTCLDY    68  51  53 CALM      29.98R
STAFFORD*      PTCLDY    62  46  56 CALM      30.02R

$$

NCZ024-NYZ072-PAZ021-071-VAZ022-071-190200-
OTHER REGIONAL OBSERVATIONS

CITY           SKY/WX    TMP DP  RH WIND       PRES   REMARKS
NEW YORK CITY  CLEAR     73  32  22 N9        29.97R
PHILADELPHIA   MOCLDY    72  45  37 SW8       29.95R
PITTSBURGH     CLOUDY    68  40  35 N10       30.06R
ROANOKE        MOCLDY    71  50  47 E6        29.99R
RICHMOND       MOCLDY    68  52  56 SE6       29.99R
RALEIGH        CLOUDY    69  62  78 S5        29.97R

$$

ANZ530>537-190200-
MARINE OBSERVATIONS

STATION/POSITION TIME  TEMP    WIND        PRES
                       AIR SEA DIR/SP/G
                 (UTC) (F)     (DEG/KT/KT) (MB)
THOMAS PT LIGHT  0100   67 57  210/ 12/ 12 1015.8R
BALT KEY BRIDGE  0000   72     170/  8/  9 1014.1S
COVE POINT       0000   67     110/  4/  5 1014.5F
LEWISETTA        0000   67 64              1014.9R
SOLOMONS ISLAND  0000      57                N/A
PINEY POINT      0006          180/  3/  4   N/A

$$




USA.gov is the U.S. government's official web portal to all federal, state and local government web resources and services.